Satellite: OKEAN-4
Catalog number: 23317
Epoch time:      09189.69512621
Element set:    0957
Inclination:      082.5418 deg
RA of node:       314.4137 deg
Eccentricity:    0.0020679
Arg of perigee:   296.5911 deg
Mean anomaly:     063.3174 deg
Mean motion:   14.82706204 rev/day
Decay rate:       -2.7e-07 rev/day^2
Epoch rev:           79555
Checksum:              318

Satellite: NOAA-14
Catalog number: 23455
Epoch time:      09190.25174822
Element set:     682
Inclination:      098.9094 deg
RA of node:       267.8548 deg
Eccentricity:    0.0010319
Arg of perigee:   126.1433 deg
Mean anomaly:     234.0696 deg
Mean motion:   14.13765623 rev/day
Decay rate:        8.3e-07 rev/day^2
Epoch rev:           74904
Checksum:              317

Satellite: NOAA-15
Catalog number: 25338
Epoch time:      09190.31481598
Element set:     999
Inclination:      098.5836 deg
RA of node:       179.0368 deg
Eccentricity:    0.0010533
Arg of perigee:   000.2080 deg
Mean anomaly:     359.9104 deg
Mean motion:   14.24770768 rev/day
Decay rate:       -9.6e-07 rev/day^2
Epoch rev:           57992
Checksum:              343

Satellite: RESURS
Catalog number: 25394
Epoch time:      09189.72868653
Element set:     255
Inclination:      098.3372 deg
RA of node:       220.9779 deg
Eccentricity:    0.0001904
Arg of perigee:   118.7429 deg
Mean anomaly:     241.3941 deg
Mean motion:   14.24185348 rev/day
Decay rate:       -1.4e-07 rev/day^2
Epoch rev:           57146
Checksum:              324

Satellite: FENGYUN1
Catalog number: 25730
Epoch time:      09189.95775621
Element set:    0854
Inclination:      098.7547 deg
RA of node:       159.4679 deg
Eccentricity:    0.0020856
Arg of perigee:   150.5139 deg
Mean anomaly:     209.7212 deg
Mean motion:   14.07911638 rev/day
Decay rate:       3.14e-06 rev/day^2
Epoch rev:           52338
Checksum:              331

Satellite: OKEAN-0
Catalog number: 25860
Epoch time:      09189.49314704
Element set:    0726
Inclination:      097.7867 deg
RA of node:       169.8268 deg
Eccentricity:    0.0001802
Arg of perigee:   085.1748 deg
Mean anomaly:     274.9657 deg
Mean motion:   14.73579500 rev/day
Decay rate:        1.9e-07 rev/day^2
Epoch rev:           53628
Checksum:              349

Satellite: NOAA-16
Catalog number: 26536
Epoch time:      09190.32184123
Element set:     476
Inclination:      099.1750 deg
RA of node:       194.5230 deg
Eccentricity:    0.0010005
Arg of perigee:   214.8247 deg
Mean anomaly:     145.2269 deg
Mean motion:   14.12524837 rev/day
Decay rate:      -1.29e-06 rev/day^2
Epoch rev:           45342
Checksum:              285

Satellite: NOAA-17
Catalog number: 27453
Epoch time:      09190.27335160
Element set:     478
Inclination:      098.4824 deg
RA of node:       248.5815 deg
Eccentricity:    0.0012599
Arg of perigee:   062.9225 deg
Mean anomaly:     297.3283 deg
Mean motion:   14.24075734 rev/day
Decay rate:       1.79e-06 rev/day^2
Epoch rev:           36589
Checksum:              343

Satellite: NOAA-18
Catalog number: 28654
Epoch time:      09190.23806407
Element set:     969
Inclination:      098.9071 deg
RA of node:       133.3075 deg
Eccentricity:    0.0013482
Arg of perigee:   303.6542 deg
Mean anomaly:     056.3351 deg
Mean motion:   14.11270431 rev/day
Decay rate:       1.87e-06 rev/day^2
Epoch rev:           21306
Checksum:              289

Satellite: NOAA-19
Catalog number: 33591
Epoch time:      09190.22285177
Element set:     171
Inclination:      098.7457 deg
RA of node:       135.4117 deg
Eccentricity:    0.0014014
Arg of perigee:   176.7279 deg
Mean anomaly:     183.3998 deg
Mean motion:   14.10968609 rev/day
Decay rate:      -1.59e-06 rev/day^2
Epoch rev:            2154
Checksum:              327

/EX
SB KEPS @ AMSAT  $ORB09190.M
Orbital Elements  09190.MISC

HR AMSAT ORBITAL ELEMENTS FOR MANNED AND MISCELLANEOUS SATELLITES
FROM WA5QGD FORT WORTH,TX July 9, 2009
Send Subscribe/unsubscribe to KEPS at 
http://www.amsat.org/mailman/listinfo/keps
BID: ORB09190.M
TO ALL RADIO AMATEURS BT

Satellite: HUBBLE
Catalog number: 20580
Epoch time:      09187.79703538
Element set:    0417
Inclination:      028.4707 deg
RA of node:       334.3116 deg
Eccentricity:    0.0003564
Arg of perigee:   130.6996 deg
Mean anomaly:     229.3951 deg
Mean motion:   15.00813792 rev/day
Decay rate:       3.33e-06 rev/day^2
Epoch rev:           85280
Checksum:              303

Satellite: ISS
Catalog number: 25544
Epoch time:      09190.47815954
Element set:     186
Inclination:      051.6377 deg
RA of node:       192.4343 deg
Eccentricity:    0.0007541
Arg of perigee:   202.7089 deg
Mean anomaly:     294.2643 deg
Mean motion:   15.74256637 rev/day
Decay rate:      7.291e-05 rev/day^2
Epoch rev:           60946
Checksum:              325

Satellite: CO-58
Catalog number: 28895
Epoch time:      09189.24414665
Element set:     342
Inclination:      098.0565 deg
RA of node:       079.2698 deg
Eccentricity:    0.0016844
Arg of perigee:   283.5757 deg
Mean anomaly:     076.3568 deg
Mean motion:   14.59779218 rev/day
Decay rate:       -4.8e-07 rev/day^2
Epoch rev:           19680
Checksum:              383

